This is the latest recevied weather packets stored in our database for station/object KO4RJX-11. If no packets are shown the sender has not sent any weather packets the latest 10 day(s).
| Time | Temp. | Humidity | Pressure | Rain* | Wind** | Luminosity | Snow |
|---|---|---|---|---|---|---|---|
| 1777840394 | 18.89° C | 24% | 1011.4 hPa | 0 mm | - | - | - |
| 1777836794 | 18.33° C | 28% | 1012 hPa | 0 mm | - | - | - |
| 1777831594 | 17.78° C | 28% | 1012.7 hPa | 0 mm | - | - | - |
| 1777828794 | 17.22° C | 29% | 1013.4 hPa | 0 mm | - | - | - |
| 1777827594 | 15.56° C | 33% | 1013.4 hPa | 0 mm | - | - | - |
| 1777827194 | 16.11° C | 30% | 1013.4 hPa | 0 mm | - | - | - |
| 1777826126 | 15° C | 31% | 1013.7 hPa | 0 mm | - | - | - |
| 1777822793 | 14.44° C | 33% | 1014.1 hPa | 0 mm | - | - | - |
| 1777822393 | 14.44° C | 39% | 1014.1 hPa | 0 mm | - | - | - |
| 1777818393 | 13.33° C | 43% | 1014.1 hPa | 0 mm | - | - | - |
| 1777815193 | 11.67° C | 54% | 1014.1 hPa | 0 mm | - | - | - |
| 1777810393 | 10° C | 58% | 1013.7 hPa | 0 mm | - | - | - |
| 1777809993 | 9.44° C | 59% | 1013.7 hPa | 0 mm | - | - | - |
| 1777806526 | 7.22° C | 65% | 1012.7 hPa | 0 mm | - | - | - |
| 1777805593 | 7.22° C | 66% | 1012.4 hPa | 0 mm | - | - | - |
| 1777801993 | 7.22° C | 64% | 1011.7 hPa | 0 mm | - | - | - |
| 1777801593 | 7.22° C | 65% | 1011.4 hPa | 0 mm | - | - | - |
| 1777800794 | 7.22° C | 66% | 1011.4 hPa | 0 mm | - | - | - |
| 1777799593 | 7.22° C | 68% | 1011.4 hPa | 0 mm | - | - | - |
| 1777798793 | 7.78° C | 66% | 1011 hPa | 0 mm | - | - | - |
| 1777797593 | 7.78° C | 66% | 1010.7 hPa | 0 mm | - | - | - |
| 1777797193 | 7.22° C | 69% | 1010.7 hPa | 0 mm | - | - | - |
| 1777789594 | 8.33° C | 82% | 1009.7 hPa | 0 mm | - | - | - |
| 1777788793 | 8.33° C | 88% | 1009.3 hPa | 0 mm | - | - | - |
| 1777785994 | 8.89° C | 92% | 1009.3 hPa | 0 mm | - | - | - |
* Rain since midnight (hover to see other rain measurements)
** Current wind speed in m/s (hover to see current wind gust speed)